WA8SIE Weather Reports


time (UTC)temp
C
wind
direction
speed
KPH
gust
KPH
rain 1hr
cm
rain 24hr
cm
rain mn
cm
humidity
%
barometer
mb
20260903220513 33 195 3.2 0.0 0.00 0.00 0.00 55 1009.0
20260903220011 33 198 0.0 0.0 0.00 0.00 0.00 54 1009.0
20260903215511 33 194 0.0 0.0 0.00 0.00 0.00 54 1008.9
20260903214013 33 203 1.6 0.0 0.00 0.00 0.00 51 1009.1
20260903213511 33 191 0.0 0.0 0.00 0.00 0.00 52 1009.1
20260903213011 33 191 4.8 0.0 0.00 0.00 0.00 51 1009.1
20260903212011 33 195 0.0 8.0 0.00 0.00 0.00 50 1009.2
20260903211513 33 196 0.0 0.0 0.00 0.00 0.00 51 1009.2
20260903211011 34 196 0.0 0.0 0.00 0.00 0.00 51 1009.6
20260903210511 34 196 0.0 0.0 0.00 0.00 0.00 50 1009.6
20260903210011 34 196 0.0 0.0 0.00 0.00 0.00 50 1009.6
20260903205011 34 188 0.0 0.0 0.00 0.00 0.00 50 1009.8
20260903204511 34 188 0.0 0.0 0.00 0.00 0.00 49 1009.8
20260903204013 34 174 0.0 0.0 0.00 0.00 0.00 49 1009.8
20260903203513 34 165 0.0 0.0 0.00 0.00 0.00 53 1009.8
20260903203011 34 207 0.0 8.0 0.00 0.00 0.00 52 1009.8
20260903202511 34 206 0.0 0.0 0.00 0.00 0.00 51 1010.0
20260903202011 34 186 0.0 0.0 0.00 0.00 0.00 51 1010.0
20260903201512 34 197 6.4 0.0 0.00 0.00 0.00 50 1010.0
20260903201011 34 267 0.0 0.0 0.00 0.00 0.00 51 1010.2
20260903200513 34 267 0.0 0.0 0.00 0.00 0.00 52 1010.2
20260903200011 34 267 0.0 0.0 0.00 0.00 0.00 52 1010.2
20260903195512 34 267 0.0 0.0 0.00 0.00 0.00 55 1010.3
20260903195011 34 268 0.0 0.0 0.00 0.00 0.00 53 1010.3
20260903194512 34 178 0.0 0.0 0.00 0.00 0.00 53 1010.3
20260903194011 34 179 0.0 3.2 0.00 0.00 0.00 51 1010.5
20260903193511 34 179 0.0 0.0 0.00 0.00 0.00 53 1010.5
20260903192511 34 179 0.0 0.0 0.00 0.00 0.00 48 1010.6
20260903192011 35 193 6.4 0.0 0.00 0.00 0.00 47 1010.6
20260903191011 35 355 0.0 0.0 0.00 0.00 0.00 50 1010.9
20260903190511 35 355 0.0 0.0 0.00 0.00 0.00 47 1010.9
20260903190011 35 290 0.0 0.0 0.00 0.00 0.00 49 1010.9
20260903185511 36 122 0.0 0.0 0.00 0.00 0.00 49 1011.0
20260903184511 35 200 0.0 0.0 0.00 0.00 0.00 48 1011.0
20260903183510 35 200 4.8 0.0 0.00 0.00 0.00 50 1011.1
20260903183010 35 296 0.0 0.0 0.00 0.00 0.00 51 1011.1
20260903182511 34 311 0.0 6.4 0.00 0.00 0.00 53 1011.3
20260903182010 34 309 0.0 0.0 0.00 0.00 0.00 52 1011.3
20260903181511 34 309 0.0 0.0 0.00 0.00 0.00 53 1011.3
20260903180011 35 292 0.0 9.7 0.00 0.00 0.00 50 1011.4
20260903175511 35 16 0.0 0.0 0.00 0.00 0.00 51 1011.5
20260903175010 35 222 1.6 0.0 0.00 0.00 0.00 51 1011.5
20260903174511 35 47 0.0 0.0 0.00 0.00 0.00 50 1011.5
20260903174011 35 293 0.0 0.0 0.00 0.00 0.00 51 1011.7
20260903173011 35 297 0.0 0.0 0.00 0.00 0.00 51 1011.7
20260903172511 35 326 0.0 0.0 0.00 0.00 0.00 51 1011.7
20260903172011 34 262 0.0 0.0 0.00 0.00 0.00 53 1011.7
20260903171511 34 226 0.0 0.0 0.00 0.00 0.00 53 1011.7
20260903171010 34 250 0.0 8.0 0.00 0.00 0.00 56 1011.8
20260903170011 33 1 0.0 0.0 0.00 0.00 0.00 53 1011.8
20260903165012 34 198 0.0 0.0 0.00 0.00 0.00 56 1012.2
20260903164512 33 201 0.0 6.4 0.00 0.00 0.00 57 1012.2
20260903163510 33 172 0.0 0.0 0.00 0.00 0.00 55 1012.3
20260903163010 33 188 4.8 0.0 0.00 0.00 0.00 56 1012.3
20260903162510 33 188 0.0 0.0 0.00 0.00 0.00 58 1012.3
20260903161510 33 188 0.0 0.0 0.00 0.00 0.00 60 1012.3
20260903161010 33 189 0.0 0.0 0.00 0.00 0.00 59 1012.3
20260903160512 32 188 0.0 0.0 0.00 0.00 0.00 61 1012.3
20260903160010 32 189 0.0 0.0 0.00 0.00 0.00 62 1012.3
20260903155010 32 188 0.0 0.0 0.00 0.00 0.00 63 1012.4
20260903154510 32 133 0.0 0.0 0.00 0.00 0.00 62 1012.4
20260903154012 32 207 3.2 0.0 0.00 0.00 0.00 63 1012.5
20260903153512 32 207 0.0 0.0 0.00 0.00 0.00 65 1012.5
20260903153011 32 207 0.0 3.2 0.00 0.00 0.00 66 1012.5
20260903152512 31 207 0.0 0.0 0.00 0.00 0.00 64 1012.7
20260903152010 31 300 0.0 0.0 0.00 0.00 0.00 66 1012.7
20260903151510 31 300 0.0 0.0 0.00 0.00 0.00 67 1012.7
20260903151012 31 191 0.0 0.0 0.00 0.00 0.00 68 1012.6
20260903150510 30 191 0.0 6.4 0.00 0.00 0.00 68 1012.6
20260903150010 30 191 0.0 0.0 0.00 0.00 0.00 67 1012.6
20260903145510 30 307 0.0 0.0 0.00 0.00 0.00 69 1012.7
20260903145010 30 309 0.0 0.0 0.00 0.00 0.00 68 1012.7
20260903144010 30 319 0.0 4.8 0.00 0.00 0.00 70 1012.8
20260903143510 30 319 0.0 0.0 0.00 0.00 0.00 70 1012.8
20260903143011 30 200 0.0 0.0 0.00 0.00 0.00 72 1012.8
20260903142011 29 200 0.0 0.0 0.00 0.00 0.00 73 1012.7
20260903141511 28 200 0.0 4.8 0.00 0.00 0.00 74 1012.7
20260903141013 28 200 0.0 0.0 0.00 0.00 0.00 75 1012.7
20260903140511 28 200 1.6 0.0 0.00 0.00 0.00 75 1012.7
20260903140011 28 123 0.0 0.0 0.00 0.00 0.00 78 1012.7
20260903135511 28 123 0.0 0.0 0.00 0.00 0.00 78 1012.8
20260903135011 28 124 0.0 0.0 0.00 0.00 0.00 79 1012.8
20260903134511 27 124 0.0 0.0 0.00 0.00 0.00 83 1012.8
20260903133511 27 124 0.0 0.0 0.00 0.00 0.00 82 1012.9
20260903133011 27 124 0.0 0.0 0.00 0.00 0.00 84 1012.9
20260903132513 26 123 0.0 0.0 0.00 0.00 0.00 86 1013.2
20260903131511 25 123 0.0 0.0 0.00 0.00 0.00 89 1013.2
20260903131013 25 124 3.2 0.0 0.00 0.00 0.00 90 1013.3
20260903130513 25 124 0.0 0.0 0.00 0.00 0.00 91 1013.3
20260903130011 25 123 0.0 3.2 0.00 0.00 0.00 93 1013.3
20260903125511 24 124 0.0 0.0 0.00 0.00 0.00 94 1013.3
20260903125012 24 124 0.0 0.0 0.00 0.00 0.00 95 1013.3
20260903124511 24 123 0.0 0.0 0.00 0.00 0.00 98 1013.3
20260903123511 23 198 0.0 0.0 0.00 0.00 0.00 100 1013.4
20260903123011 23 199 0.0 0.0 0.00 0.00 0.00 100 1013.4
20260903122511 23 199 0.0 0.0 0.00 0.00 0.00 100 1013.4
20260903122011 23 199 0.0 0.0 0.00 0.00 0.00 100 1013.4
20260903121511 23 199 0.0 0.0 0.00 0.00 0.00 100 1013.4
20260903121011 22 198 0.0 0.0 0.00 0.00 0.00 100 1013.3
20260903120511 22 198 0.0 0.0 0.00 0.00 0.00 100 1013.3
20260903120011 22 198 0.0 1.6 0.00 0.00 0.00 100 1013.3
20260903115512 22 198 0.0 1.6 0.00 0.00 0.00 100 1013.3
20260903115011 22 199 0.0 3.2 0.00 0.00 0.00 100 1013.3
20260903114511 22 199 0.0 3.2 0.00 0.00 0.00 100 1013.3
20260903114013 22 199 1.6 3.2 0.00 0.00 0.00 100 1013.2
20260903113511 22 198 0.0 0.0 0.00 0.00 0.00 100 1013.2
20260903113011 22 198 0.0 0.0 0.00 0.00 0.00 100 1013.2
20260903112511 22 198 0.0 0.0 0.00 0.00 0.00 100 1013.0
20260903112010 22 198 0.0 0.0 0.00 0.00 0.00 100 1013.0
20260903111511 22 198 0.0 0.0 0.00 0.00 0.00 100 1013.0
20260903111011 22 198 0.0 0.0 0.00 0.00 0.00 100 1012.8
20260903110511 22 199 0.0 0.0 0.00 0.00 0.00 100 1012.8
20260903110012 22 198 0.0 0.0 0.00 0.00 0.00 100 1012.8
20260903105512 22 199 0.0 0.0 0.00 0.00 0.00 100 1012.6
20260903105011 22 199 0.0 3.2 0.00 0.00 0.00 100 1012.6
20260903104011 22 198 3.2 3.2 0.00 0.00 0.00 100 1012.5
20260903103510 22 199 0.0 0.0 0.00 0.00 0.00 100 1012.5
20260903103011 22 199 0.0 0.0 0.00 0.00 0.00 100 1012.5
20260903102512 22 198 0.0 0.0 0.00 0.00 0.00 100 1012.4
20260903101511 22 198 0.0 0.0 0.00 0.00 0.00 100 1012.4
20260903101011 22 198 0.0 3.2 0.00 0.00 0.00 100 1012.3
20260903100510 22 199 0.0 3.2 0.00 0.00 0.00 100 1012.3
20260903100011 22 198 0.0 4.8 0.00 0.00 0.00 100 1012.3
20260903095511 22 199 0.0 4.8 0.00 0.00 0.00 100 1012.4
20260903095011 22 199 0.0 0.0 0.00 0.00 0.00 100 1012.4
20260903094511 22 199 0.0 0.0 0.00 0.00 0.00 100 1012.4
20260903094011 22 198 0.0 0.0 0.00 0.00 0.00 100 1012.3
20260903093512 22 199 0.0 0.0 0.00 0.00 0.00 100 1012.3
20260903093011 22 199 0.0 0.0 0.00 0.00 0.00 100 1012.3
20260903092511 22 199 0.0 0.0 0.00 0.00 0.00 100 1012.2
20260903092011 22 198 0.0 0.0 0.00 0.00 0.00 100 1012.2
20260903091511 22 199 0.0 0.0 0.00 0.00 0.00 100 1012.2
20260903091010 22 198 0.0 0.0 0.00 0.00 0.00 100 1012.0
20260903090511 22 198 0.0 0.0 0.00 0.00 0.00 100 1012.0
20260903090010 22 198 0.0 0.0 0.00 0.00 0.00 100 1012.0
20260903085011 22 198 0.0 0.0 0.00 0.00 0.00 100 1012.0
20260903084512 22 198 0.0 0.0 0.00 0.00 0.00 100 1012.0
20260903084010 22 198 0.0 0.0 0.00 0.00 0.00 100 1012.0
20260903083511 22 199 0.0 0.0 0.00 0.00 0.00 100 1012.0
20260903083010 22 198 0.0 0.0 0.00 0.00 0.00 100 1012.0
20260903082511 22 199 0.0 0.0 0.00 0.00 0.00 100 1012.1
20260903082010 22 199 0.0 0.0 0.00 0.00 0.00 100 1012.1
20260903081510 22 199 0.0 0.0 0.00 0.00 0.00 100 1012.1
20260903081011 22 199 0.0 0.0 0.00 0.00 0.00 100 1012.1
20260903080510 22 199 0.0 0.0 0.00 0.00 0.00 100 1012.1
20260903075510 23 198 0.0 3.2 0.00 0.00 0.00 100 1012.1
20260903074511 23 199 0.0 0.0 0.00 0.00 0.00 100 1012.1
20260903074010 23 199 0.0 0.0 0.00 0.00 0.00 100 1012.0
20260903073510 23 199 0.0 0.0 0.00 0.00 0.00 100 1012.0
20260903073010 23 199 0.0 0.0 0.00 0.00 0.00 100 1012.0
20260903072512 23 198 0.0 0.0 0.00 0.00 0.00 100 1011.9
20260903072010 23 199 0.0 0.0 0.00 0.00 0.00 100 1011.9
20260903071012 23 199 0.0 0.0 0.00 0.00 0.00 100 1011.9
20260903070512 23 199 0.0 0.0 0.00 0.00 0.00 100 1011.9
20260903065510 23 199 0.0 0.0 0.00 0.00 0.00 100 1011.9
20260903064512 23 199 0.0 0.0 0.00 0.00 0.00 100 1011.9
20260903064010 23 199 0.0 0.0 0.00 0.00 0.00 100 1011.7
20260903063512 23 199 0.0 0.0 0.00 0.00 0.00 100 1011.7
20260903062510 23 199 0.0 0.0 0.00 0.00 0.00 100 1011.8
20260903062010 23 199 0.0 0.0 0.00 0.00 0.00 100 1011.8
20260903061512 23 199 0.0 0.0 0.00 0.00 0.00 100 1011.8
20260903061010 23 199 0.0 0.0 0.00 0.00 0.00 100 1011.8
20260903060510 23 198 0.0 0.0 0.00 0.00 0.00 100 1011.8
20260903060011 23 199 0.0 0.0 0.00 0.00 0.00 100 1011.8
20260903055513 23 199 0.0 0.0 0.00 0.00 0.00 100 1011.8
20260903055011 23 198 0.0 0.0 0.00 0.00 0.00 100 1011.8
20260903054013 23 198 0.0 0.0 0.00 0.00 0.00 100 1011.8
20260903053511 23 198 0.0 0.0 0.00 0.00 0.00 100 1011.8
20260903053011 23 199 0.0 0.0 0.00 0.00 0.00 100 1011.8
20260903052511 23 199 0.0 0.0 0.00 0.00 0.00 100 1011.8
20260903051511 24 198 0.0 0.0 0.00 0.00 0.00 99 1011.8
20260903051011 24 198 0.0 0.0 0.00 0.00 0.00 99 1011.8
20260903050511 24 199 0.0 0.0 0.00 0.00 0.00 99 1011.8
20260903050011 24 199 0.0 0.0 0.00 0.00 0.00 99 1011.8
20260903045511 24 199 0.0 0.0 0.00 0.00 0.00 99 1011.8
20260903045011 24 199 0.0 0.0 0.00 0.00 0.00 99 1011.8
20260903044511 24 198 0.0 0.0 0.00 0.00 0.00 99 1011.8
20260903044011 24 199 0.0 0.0 0.00 0.00 0.00 99 1011.7
20260903043511 24 198 0.0 0.0 0.00 0.00 0.00 98 1011.7
20260903043011 24 198 0.0 4.8 0.00 0.00 0.00 98 1011.7
20260903042013 24 199 0.0 0.0 0.00 0.00 0.00 98 1011.7
20260903041511 24 198 0.0 0.0 0.00 0.00 0.00 98 1011.7
20260903041011 24 198 0.0 0.0 0.00 0.00 0.00 98 1011.8
20260903040511 24 199 0.0 0.0 0.00 0.00 0.00 97 1011.8
20260903040011 25 198 0.0 3.2 0.00 0.00 0.00 97 1011.8
20260903035511 25 198 0.0 3.2 0.00 0.00 0.00 97 1011.8
20260903035011 25 199 0.0 0.0 0.00 0.00 0.00 97 1011.8
20260903034511 25 199 0.0 0.0 0.00 0.00 0.00 97 1011.8
20260903034012 25 198 0.0 0.0 0.00 0.00 0.00 97 1011.9
20260903033512 25 198 0.0 0.0 0.00 0.00 0.00 96 1011.9
20260903033011 25 199 0.0 0.0 0.00 0.00 0.00 96 1011.9
20260903032511 25 199 0.0 0.0 0.00 0.00 0.00 96 1011.9
20260903031511 25 199 0.0 0.0 0.00 0.00 0.00 95 1011.9
20260903031011 25 199 0.0 0.0 0.00 0.00 0.00 95 1012.0
20260903030512 25 199 0.0 0.0 0.00 0.00 0.00 95 1012.0
20260903030011 25 199 0.0 0.0 0.00 0.00 0.00 95 1012.0
20260903025511 25 199 0.0 0.0 0.00 0.00 0.00 95 1011.9
20260903025012 25 199 0.0 0.0 0.00 0.00 0.00 95 1011.9
20260903024510 25 198 0.0 0.0 0.00 0.00 0.00 95 1011.9
20260903024011 25 199 0.0 0.0 0.00 0.00 0.00 94 1011.9
20260903023511 25 199 0.0 0.0 0.00 0.00 0.00 94 1011.9
20260903023011 25 199 0.0 0.0 0.00 0.00 0.00 94 1011.9
20260903022510 25 199 0.0 0.0 0.00 0.00 0.00 94 1011.8
20260903022012 25 198 0.0 0.0 0.00 0.00 0.00 94 1011.8
20260903021011 26 199 0.0 1.6 0.00 0.00 0.00 93 1011.9
20260903020510 26 199 0.0 1.6 0.00 0.00 0.00 92 1011.9
20260903020011 26 199 0.0 0.0 0.00 0.00 0.00 92 1011.9
20260903015011 26 199 0.0 0.0 0.00 0.00 0.00 91 1012.0
20260903014511 26 199 0.0 0.0 0.00 0.00 0.00 91 1012.0
20260903014012 26 199 0.0 0.0 0.00 0.00 0.00 91 1011.9
20260903013512 26 199 0.0 0.0 0.00 0.00 0.00 91 1011.9
20260903013010 26 199 0.0 0.0 0.00 0.00 0.00 90 1011.9
20260903012511 26 199 0.0 0.0 0.00 0.00 0.00 90 1011.8
20260903012011 26 199 0.0 0.0 0.00 0.00 0.00 89 1011.8
20260903011510 26 198 0.0 0.0 0.00 0.00 0.00 88 1011.8
20260903011011 27 198 0.0 0.0 0.00 0.00 0.00 88 1011.6
20260903010510 27 199 0.0 0.0 0.00 0.00 0.00 87 1011.6
20260903010011 27 199 0.0 0.0 0.00 0.00 0.00 87 1011.6
20260903005512 27 199 0.0 0.0 0.00 0.00 0.00 86 1011.5
20260903005011 27 199 0.0 0.0 0.00 0.00 0.00 85 1011.5
20260903004512 27 198 0.0 0.0 0.00 0.00 0.00 84 1011.5
20260903004011 27 199 0.0 1.6 0.00 0.00 0.00 83 1011.4
20260903003510 27 199 0.0 1.6 0.00 0.00 0.00 83 1011.4
20260903003010 27 199 0.0 0.0 0.00 0.00 0.00 82 1011.4
20260903002511 28 198 0.0 0.0 0.00 0.00 0.00 81 1011.4
20260903002010 28 198 0.0 1.6 0.00 0.00 0.00 79 1011.4
20260903001510 28 199 0.0 4.8 0.00 0.00 0.00 79 1011.4
20260903001011 28 199 0.0 4.8 0.00 0.00 0.00 78 1011.4
20260903000010 28 198 0.0 0.0 0.00 0.00 0.00 77 1011.4
20260902235510 28 199 0.0 0.0 0.00 0.00 0.00 77 1011.3
20260902235011 28 199 0.0 0.0 0.00 0.00 0.00 76 1011.3
20260902234510 28 198 0.0 0.0 0.00 0.00 0.00 76 1011.3
20260902233510 29 198 0.0 0.0 0.00 0.00 0.00 73 1011.3
20260902233010 29 199 0.0 0.0 0.00 0.00 0.00 71 1011.3
20260902232010 30 198 0.0 0.0 0.00 0.00 0.00 70 1011.3
20260902231010 30 199 0.0 0.0 0.00 0.00 0.00 67 1011.4
20260902230512 30 198 0.0 0.0 0.00 0.00 0.00 65 1011.4
20260902225510 31 199 0.0 0.0 0.00 0.00 0.00 66 1011.4
20260902225010 31 199 0.0 0.0 0.00 0.00 0.00 64 1011.4
20260902224510 31 199 0.0 0.0 0.00 0.00 0.00 63 1011.4
20260902224010 31 198 0.0 0.0 0.00 0.00 0.00 63 1011.3
20260902223510 32 199 0.0 0.0 0.00 0.00 0.00 60 1011.3
20260902222011 32 199 0.0 0.0 0.00 0.00 0.00 60 1011.4
20260902221511 32 199 0.0 0.0 0.00 0.00 0.00 53 1011.4
20260902221010 32 199 0.0 0.0 0.00 0.00 0.00 57 1011.5